| time (UTC) | temp C | wind direction | speed KPH | gust KPH | rain 1hr cm | rain 24hr cm | rain mn cm | humidity % | barometer mb |
| 20260505004306 | 16 | 109 | 0.0 | 1.6 | 0.00 | 0.00 | 0.00 | 70 | 1014.2 |
| 20260505003758 | 16 | 109 | 0.0 | 1.6 | 0.00 | 0.00 | 0.00 | 69 | 1014.1 |
| 20260505003254 | 17 | 109 | 0.0 | 1.6 | 0.00 | 0.00 | 0.00 | 69 | 1014.1 |
| 20260505002746 | 17 | 109 | 0.0 | 1.6 | 0.00 | 0.00 | 0.00 | 69 | 1014.0 |
| 20260505002241 | 17 | 109 | 0.0 | 1.6 | 0.00 | 0.00 | 0.00 | 68 | 1014.0 |
| 20260505001736 | 17 | 111 | 0.0 | 1.6 | 0.00 | 0.00 | 0.00 | 67 | 1014.0 |
| 20260505001229 | 18 | 109 | 0.0 | 1.6 | 0.00 | 0.00 | 0.00 | 67 | 1014.0 |
| 20260505000724 | 18 | 109 | 0.0 | 1.6 | 0.00 | 0.00 | 0.00 | 67 | 1013.9 |
| 20260505000219 | 18 | 109 | 0.0 | 1.6 | 0.00 | 0.00 | 0.00 | 65 | 1013.9 |
| 20260504235930 | 18 | 109 | 0.0 | 0.0 | 0.00 | 0.00 | 0.00 | 65 | 1014.0 |
| 20260504235206 | 19 | 109 | 0.0 | 1.6 | 0.00 | 0.00 | 0.00 | 63 | 1013.9 |
| 20260504234700 | 19 | 109 | 0.0 | 1.6 | 0.00 | 0.00 | 0.00 | 61 | 1014.0 |
| 20260504234351 | 20 | 109 | 0.0 | 0.0 | 0.00 | 0.00 | 0.00 | 59 | 1014.0 |
| 20260504234241 | 20 | 109 | 0.0 | 1.6 | 0.00 | 0.00 | 0.00 | 61 | 1014.0 |
| 20260504233142 | 20 | 109 | 0.0 | 0.0 | 0.00 | 0.00 | 0.00 | 58 | 1014.0 |
| 20260504232636 | 20 | 109 | 0.0 | 1.6 | 0.00 | 0.00 | 0.00 | 57 | 1014.0 |
| 20260504232130 | 20 | 109 | 0.0 | 1.6 | 0.00 | 0.00 | 0.00 | 55 | 1014.0 |
| 20260504231624 | 21 | 109 | 0.0 | 0.0 | 0.00 | 0.00 | 0.00 | 54 | 1014.0 |
| 20260504231117 | 21 | 109 | 0.0 | 1.6 | 0.00 | 0.00 | 0.00 | 53 | 1013.9 |
| 20260504230612 | 21 | 109 | 0.0 | 1.6 | 0.00 | 0.00 | 0.00 | 52 | 1013.8 |
| 20260504230334 | 21 | 109 | 1.6 | 4.8 | 0.00 | 0.00 | 0.00 | 53 | 1013.8 |
| 20260504225559 | 21 | 109 | 1.6 | 4.8 | 0.00 | 0.00 | 0.00 | 50 | 1013.9 |
| 20260504225052 | 21 | 111 | 1.6 | 6.4 | 0.00 | 0.00 | 0.00 | 49 | 1014.0 |
| 20260504224548 | 21 | 76 | 1.6 | 6.4 | 0.00 | 0.00 | 0.00 | 47 | 1013.9 |
| 20260504224041 | 21 | 108 | 1.6 | 6.4 | 0.00 | 0.00 | 0.00 | 44 | 1014.0 |
| 20260504223534 | 21 | 108 | 1.6 | 6.4 | 0.00 | 0.00 | 0.00 | 45 | 1014.0 |
| 20260504223030 | 21 | 138 | 1.6 | 6.4 | 0.00 | 0.00 | 0.00 | 47 | 1014.0 |
| 20260504222750 | 21 | 32 | 3.2 | 12.9 | 0.00 | 0.00 | 0.00 | 47 | 1014.0 |
| 20260504222018 | 21 | 123 | 3.2 | 12.9 | 0.00 | 0.00 | 0.00 | 50 | 1014.1 |
| 20260504221732 | 22 | 87 | 3.2 | 14.5 | 0.00 | 0.00 | 0.00 | 46 | 1014.0 |
| 20260504221006 | 22 | 94 | 3.2 | 14.5 | 0.00 | 0.00 | 0.00 | 46 | 1014.0 |
| 20260504220500 | 22 | 123 | 3.2 | 12.9 | 0.00 | 0.00 | 0.00 | 45 | 1014.0 |
| 20260504215952 | 22 | 58 | 1.6 | 11.3 | 0.00 | 0.00 | 0.00 | 44 | 1013.9 |
| 20260504215448 | 22 | 296 | 1.6 | 4.8 | 0.00 | 0.00 | 0.00 | 47 | 1013.9 |
| 20260504214942 | 22 | 71 | 3.2 | 8.0 | 0.00 | 0.00 | 0.00 | 45 | 1013.8 |
| 20260504214434 | 22 | 42 | 3.2 | 8.0 | 0.00 | 0.00 | 0.00 | 46 | 1013.8 |
| 20260504213929 | 22 | 104 | 1.6 | 6.4 | 0.00 | 0.00 | 0.00 | 43 | 1013.8 |
| 20260504213424 | 22 | 221 | 1.6 | 11.3 | 0.00 | 0.00 | 0.00 | 44 | 1013.8 |
| 20260504213141 | 23 | 209 | 3.2 | 11.3 | 0.00 | 0.00 | 0.00 | 45 | 1013.9 |
| 20260504212412 | 22 | 74 | 3.2 | 9.7 | 0.00 | 0.00 | 0.00 | 45 | 1013.7 |
| 20260504211906 | 22 | 340 | 1.6 | 3.2 | 0.00 | 0.00 | 0.00 | 46 | 1013.9 |
| 20260504211400 | 22 | 340 | 1.6 | 6.4 | 0.00 | 0.00 | 0.00 | 46 | 1013.8 |
| 20260504210854 | 22 | 302 | 3.2 | 9.7 | 0.00 | 0.00 | 0.00 | 47 | 1013.8 |
| 20260504210348 | 22 | 117 | 3.2 | 9.7 | 0.00 | 0.00 | 0.00 | 46 | 1013.7 |
| 20260504205842 | 23 | 121 | 3.2 | 9.7 | 0.00 | 0.00 | 0.00 | 43 | 1013.7 |
| 20260504205335 | 23 | 324 | 3.2 | 9.7 | 0.00 | 0.00 | 0.00 | 49 | 1013.7 |
| 20260504204835 | 23 | 104 | 3.2 | 9.7 | 0.00 | 0.00 | 0.00 | 44 | 1013.7 |
| 20260504204335 | 23 | 72 | 3.2 | 14.5 | 0.00 | 0.00 | 0.00 | 43 | 1013.7 |
| 20260504203837 | 23 | 92 | 4.8 | 14.5 | 0.00 | 0.00 | 0.00 | 42 | 1013.8 |
| 20260504203559 | 23 | 88 | 4.8 | 12.9 | 0.00 | 0.00 | 0.00 | 41 | 1013.9 |
| 20260504202835 | 23 | 169 | 3.2 | 11.3 | 0.00 | 0.00 | 0.00 | 39 | 1013.9 |
| 20260504202333 | 23 | 148 | 3.2 | 11.3 | 0.00 | 0.00 | 0.00 | 40 | 1014.0 |
| 20260504201834 | 23 | 234 | 3.2 | 11.3 | 0.00 | 0.00 | 0.00 | 39 | 1014.0 |
| 20260504201333 | 23 | 102 | 4.8 | 14.5 | 0.00 | 0.00 | 0.00 | 37 | 1014.2 |
| 20260504200831 | 23 | 267 | 3.2 | 14.5 | 0.00 | 0.00 | 0.00 | 39 | 1014.2 |
| 20260504200331 | 23 | 19 | 3.2 | 8.0 | 0.00 | 0.00 | 0.00 | 38 | 1014.3 |
| 20260504195831 | 23 | 101 | 3.2 | 8.0 | 0.00 | 0.00 | 0.00 | 44 | 1014.4 |
| 20260504195329 | 23 | 56 | 3.2 | 8.0 | 0.00 | 0.00 | 0.00 | 41 | 1014.6 |
| 20260504194829 | 23 | 136 | 3.2 | 8.0 | 0.00 | 0.00 | 0.00 | 42 | 1014.6 |
| 20260504194329 | 23 | 75 | 3.2 | 14.5 | 0.00 | 0.00 | 0.00 | 42 | 1014.7 |
| 20260504193828 | 23 | 26 | 1.6 | 14.5 | 0.00 | 0.00 | 0.00 | 42 | 1014.7 |
| 20260504193325 | 23 | 91 | 3.2 | 9.7 | 0.00 | 0.00 | 0.00 | 45 | 1014.7 |
| 20260504192825 | 23 | 61 | 3.2 | 11.3 | 0.00 | 0.00 | 0.00 | 44 | 1014.8 |
| 20260504192328 | 23 | 115 | 4.8 | 11.3 | 0.00 | 0.00 | 0.00 | 42 | 1014.9 |
| 20260504191823 | 23 | 344 | 4.8 | 11.3 | 0.00 | 0.00 | 0.00 | 44 | 1014.9 |
| 20260504191319 | 23 | 118 | 3.2 | 9.7 | 0.00 | 0.00 | 0.00 | 43 | 1014.8 |
| 20260504190815 | 23 | 146 | 1.6 | 6.4 | 0.00 | 0.00 | 0.00 | 46 | 1014.9 |
| 20260504190316 | 23 | 61 | 3.2 | 6.4 | 0.00 | 0.00 | 0.00 | 45 | 1014.9 |
| 20260504190036 | 23 | 98 | 3.2 | 9.7 | 0.00 | 0.00 | 0.00 | 43 | 1014.8 |
| 20260504185311 | 23 | 225 | 3.2 | 9.7 | 0.00 | 0.00 | 0.00 | 40 | 1015.0 |
| 20260504184810 | 23 | 106 | 3.2 | 9.7 | 0.00 | 0.00 | 0.00 | 43 | 1015.0 |
| 20260504184537 | 23 | 51 | 3.2 | 9.7 | 0.00 | 0.00 | 0.00 | 44 | 1015.1 |
| 20260504183809 | 23 | 205 | 3.2 | 8.0 | 0.00 | 0.00 | 0.00 | 43 | 1015.2 |
| 20260504183309 | 23 | 92 | 3.2 | 8.0 | 0.00 | 0.00 | 0.00 | 46 | 1015.3 |
| 20260504182811 | 22 | 0 | 1.6 | 8.0 | 0.00 | 0.00 | 0.00 | 45 | 1015.3 |
| 20260504182309 | 22 | 263 | 3.2 | 11.3 | 0.00 | 0.00 | 0.00 | 47 | 1015.4 |
| 20260504181808 | 22 | 143 | 4.8 | 17.7 | 0.00 | 0.00 | 0.00 | 45 | 1015.4 |
| 20260504181310 | 23 | 227 | 3.2 | 17.7 | 0.00 | 0.00 | 0.00 | 41 | 1015.5 |
| 20260504181033 | 22 | 39 | 3.2 | 8.0 | 0.00 | 0.00 | 0.00 | 42 | 1015.5 |
| 20260504180526 | 22 | 303 | 1.6 | 4.8 | 0.00 | 0.00 | 0.00 | 46 | 1015.5 |
| 20260504175806 | 22 | 188 | 3.2 | 11.3 | 0.00 | 0.00 | 0.00 | 46 | 1015.6 |
| 20260504175305 | 22 | 175 | 3.2 | 11.3 | 0.00 | 0.00 | 0.00 | 43 | 1015.7 |
| 20260504174805 | 22 | 208 | 4.8 | 11.3 | 0.00 | 0.00 | 0.00 | 41 | 1015.8 |
| 20260504174746 | 22 | 128 | 3.2 | 11.3 | 0.00 | 0.00 | 0.00 | 43 | 1015.8 |
| 20260504173805 | 22 | 270 | 3.2 | 11.3 | 0.00 | 0.00 | 0.00 | 50 | 1015.8 |
| 20260504173305 | 22 | 232 | 3.2 | 9.7 | 0.00 | 0.00 | 0.00 | 50 | 1015.9 |
| 20260504172805 | 21 | 76 | 3.2 | 11.3 | 0.00 | 0.00 | 0.00 | 47 | 1015.9 |
| 20260504172307 | 21 | 211 | 1.6 | 11.3 | 0.00 | 0.00 | 0.00 | 44 | 1015.9 |
| 20260504171800 | 21 | 130 | 3.2 | 8.0 | 0.00 | 0.00 | 0.00 | 49 | 1015.9 |
| 20260504171302 | 21 | 92 | 3.2 | 12.9 | 0.00 | 0.00 | 0.00 | 49 | 1016.0 |
| 20260504170802 | 21 | 229 | 3.2 | 12.9 | 0.00 | 0.00 | 0.00 | 43 | 1016.0 |
| 20260504170525 | 21 | 84 | 3.2 | 12.9 | 0.00 | 0.00 | 0.00 | 46 | 1016.2 |
| 20260504160303 | 20 | 223 | 3.2 | 12.9 | 0.00 | 0.00 | 0.00 | 48 | 1016.8 |
| 20260504150747 | 17 | 206 | 4.8 | 16.1 | 0.00 | 0.00 | 0.00 | 52 | 1017.4 |
| 20260504150510 | 17 | 212 | 4.8 | 12.9 | 0.00 | 0.00 | 0.00 | 52 | 1017.4 |
| 20260504141235 | 16 | 126 | 3.2 | 6.4 | 0.00 | 0.00 | 0.00 | 65 | 1017.6 |
| 20260504140727 | 15 | 194 | 3.2 | 6.4 | 0.00 | 0.00 | 0.00 | 60 | 1017.6 |
| 20260504140223 | 15 | 181 | 1.6 | 6.4 | 0.00 | 0.00 | 0.00 | 65 | 1017.6 |
| 20260504130707 | 8 | 109 | 0.0 | 0.0 | 0.00 | 0.00 | 0.00 | 89 | 1017.6 |
| 20260504130423 | 8 | 109 | 0.0 | 0.0 | 0.00 | 0.00 | 0.00 | 91 | 1017.7 |
| 20260504120139 | 4 | 109 | 0.0 | 0.0 | 0.00 | 0.00 | 0.00 | 92 | 1017.8 |
| 20260504110534 | 3 | 109 | 0.0 | 0.0 | 0.00 | 0.00 | 0.00 | 89 | 1017.3 |
| 20260504100132 | 4 | 109 | 0.0 | 0.0 | 0.00 | 0.00 | 0.00 | 89 | 1017.0 |
| 20260504081715 | 5 | 109 | 0.0 | 0.0 | 0.00 | 0.00 | 0.00 | 88 | 1017.0 |
| 20260504081210 | 5 | 109 | 0.0 | 0.0 | 0.00 | 0.00 | 0.00 | 88 | 1017.0 |
| 20260504080857 | 5 | 109 | 0.0 | 1.6 | 0.00 | 0.00 | 0.00 | 88 | 1017.0 |
| 20260504080757 | 5 | 109 | 0.0 | 1.6 | 0.00 | 0.00 | 0.00 | 88 | 1017.0 |
| 20260504050501 | 5 | 109 | 0.0 | 3.2 | 0.00 | 0.00 | 0.00 | 86 | 1018.0 |
| 20260504045959 | 5 | 109 | 0.0 | 3.2 | 0.00 | 0.00 | 0.00 | 86 | 1018.0 |
| 20260504045501 | 5 | 109 | 0.0 | 1.6 | 0.00 | 0.00 | 0.00 | 86 | 1017.8 |
| 20260504045000 | 5 | 109 | 0.0 | 1.6 | 0.00 | 0.00 | 0.00 | 86 | 1017.8 |
| 20260504044501 | 5 | 109 | 0.0 | 1.6 | 0.00 | 0.00 | 0.00 | 85 | 1017.8 |
| 20260504044001 | 5 | 109 | 0.0 | 0.0 | 0.00 | 0.00 | 0.00 | 85 | 1018.0 |
| 20260504043501 | 5 | 109 | 0.0 | 0.0 | 0.00 | 0.00 | 0.00 | 85 | 1017.8 |
| 20260504042959 | 5 | 109 | 0.0 | 1.6 | 0.00 | 0.00 | 0.00 | 85 | 1017.6 |
| 20260504042500 | 5 | 109 | 0.0 | 1.6 | 0.00 | 0.00 | 0.00 | 85 | 1017.7 |
| 20260504042000 | 5 | 109 | 0.0 | 1.6 | 0.00 | 0.00 | 0.00 | 85 | 1017.7 |
| 20260504041500 | 5 | 109 | 0.0 | 0.0 | 0.00 | 0.00 | 0.00 | 85 | 1017.6 |
| 20260504041003 | 6 | 109 | 0.0 | 1.6 | 0.00 | 0.00 | 0.00 | 84 | 1017.7 |
| 20260504040504 | 6 | 109 | 0.0 | 1.6 | 0.00 | 0.00 | 0.00 | 84 | 1017.7 |
| 20260504040001 | 6 | 109 | 0.0 | 1.6 | 0.00 | 0.00 | 0.00 | 83 | 1017.6 |
| 20260504035454 | 6 | 109 | 0.0 | 1.6 | 0.00 | 0.00 | 0.00 | 83 | 1017.6 |
| 20260504035208 | 6 | 109 | 0.0 | 1.6 | 0.00 | 0.00 | 0.00 | 82 | 1017.5 |
| 20260504034444 | 6 | 109 | 0.0 | 0.0 | 0.00 | 0.00 | 0.00 | 82 | 1017.6 |
| 20260504033937 | 6 | 109 | 0.0 | 1.6 | 0.00 | 0.00 | 0.00 | 82 | 1017.5 |
| 20260504033431 | 6 | 109 | 0.0 | 1.6 | 0.00 | 0.00 | 0.00 | 82 | 1017.4 |
| 20260504032924 | 6 | 109 | 0.0 | 1.6 | 0.00 | 0.00 | 0.00 | 81 | 1017.6 |
| 20260504032419 | 7 | 109 | 0.0 | 1.6 | 0.00 | 0.00 | 0.00 | 81 | 1017.6 |
| 20260504031913 | 7 | 109 | 0.0 | 1.6 | 0.00 | 0.00 | 0.00 | 81 | 1017.6 |
| 20260504031407 | 7 | 109 | 0.0 | 1.6 | 0.00 | 0.00 | 0.00 | 81 | 1017.6 |
| 20260504030901 | 7 | 109 | 0.0 | 1.6 | 0.00 | 0.00 | 0.00 | 80 | 1017.7 |
| 20260504030619 | 7 | 109 | 0.0 | 1.6 | 0.00 | 0.00 | 0.00 | 81 | 1017.7 |
| 20260504025847 | 7 | 109 | 0.0 | 1.6 | 0.00 | 0.00 | 0.00 | 80 | 1017.7 |
| 20260504025343 | 7 | 109 | 0.0 | 1.6 | 0.00 | 0.00 | 0.00 | 80 | 1017.8 |
| 20260504024835 | 7 | 109 | 0.0 | 1.6 | 0.00 | 0.00 | 0.00 | 79 | 1017.8 |
| 20260504024331 | 7 | 109 | 1.6 | 1.6 | 0.00 | 0.00 | 0.00 | 79 | 1017.7 |
| 20260504024048 | 8 | 109 | 0.0 | 1.6 | 0.00 | 0.00 | 0.00 | 78 | 1017.7 |
| 20260504023319 | 8 | 109 | 0.0 | 1.6 | 0.00 | 0.00 | 0.00 | 78 | 1017.7 |
| 20260504022813 | 8 | 109 | 0.0 | 1.6 | 0.00 | 0.00 | 0.00 | 79 | 1017.6 |
| 20260504022307 | 8 | 109 | 0.0 | 1.6 | 0.00 | 0.00 | 0.00 | 79 | 1017.5 |
| 20260504021800 | 8 | 109 | 0.0 | 1.6 | 0.00 | 0.00 | 0.00 | 78 | 1017.5 |
| 20260504021254 | 8 | 109 | 0.0 | 0.0 | 0.00 | 0.00 | 0.00 | 77 | 1017.4 |
| 20260504020748 | 8 | 109 | 0.0 | 0.0 | 0.00 | 0.00 | 0.00 | 75 | 1017.3 |
| 20260504020243 | 9 | 109 | 0.0 | 0.0 | 0.00 | 0.00 | 0.00 | 75 | 1017.4 |
| 20260504015738 | 9 | 109 | 0.0 | 0.0 | 0.00 | 0.00 | 0.00 | 75 | 1017.4 |
| 20260504015459 | 9 | 109 | 0.0 | 0.0 | 0.00 | 0.00 | 0.00 | 72 | 1017.3 |
| 20260504014725 | 10 | 109 | 0.0 | 0.0 | 0.00 | 0.00 | 0.00 | 71 | 1017.3 |
| 20260504014219 | 10 | 109 | 0.0 | 3.2 | 0.00 | 0.00 | 0.00 | 69 | 1017.3 |
| 20260504013713 | 10 | 109 | 0.0 | 3.2 | 0.00 | 0.00 | 0.00 | 70 | 1017.3 |
| 20260504013207 | 10 | 109 | 0.0 | 1.6 | 0.00 | 0.00 | 0.00 | 68 | 1017.2 |
| 20260504012701 | 11 | 109 | 0.0 | 1.6 | 0.00 | 0.00 | 0.00 | 68 | 1017.2 |
| 20260504012412 | 11 | 109 | 1.6 | 1.6 | 0.00 | 0.00 | 0.00 | 66 | 1017.1 |
| 20260504011648 | 11 | 109 | 0.0 | 3.2 | 0.00 | 0.00 | 0.00 | 65 | 1017.0 |
| 20260504011348 | 12 | 109 | 0.0 | 1.6 | 0.00 | 0.00 | 0.00 | 64 | 1017.0 |
| 20260504011230 | 11 | 109 | 0.0 | 3.2 | 0.00 | 0.00 | 0.00 | 65 | 1017.0 |
| 20260504010132 | 12 | 109 | 0.0 | 1.6 | 0.00 | 0.00 | 0.00 | 61 | 1017.0 |
| 20260504005624 | 12 | 109 | 0.0 | 1.6 | 0.00 | 0.00 | 0.00 | 61 | 1016.9 |
| 20260504005119 | 13 | 109 | 0.0 | 1.6 | 0.00 | 0.00 | 0.00 | 57 | 1016.9 |
| 20260504005051 | 13 | 109 | 0.0 | 0.0 | 0.00 | 0.00 | 0.00 | 56 | 1016.8 |